Location: Chandrammap?lem
(16.9200°N, 81.0051°E)
Time: 10:29:49
(UTC+00:00)

SWIFT - Pass Details

Date: 29 May 2024
Orbit: 503 x 514 km, 20.6° (Epoch: 14 June)

Event Time Altitude Azimuth Distance (km) Brightness Sun altitude
Exits shadow 23:33:44 - 210° (SSW) 2,186 4.9 -7.0°
Reaches altitude 10° 23:35:34 10° 193° (SSW) 1,692 4.5 -6.6°
Maximum altitude 23:37:47 15° 158° (SSE) 1,429 4.4 -6.1°
Drops below altitude 10° 23:40:00 10° 123° (ESE) 1,691 5.3 -5.6°
Sets 23:43:02 0° 99° (E) 2,574 6.8 -4.9°
